Flag for Canada Weather past 2 weeks in Kenora, Ontario, Canada

Now
59 °F

Broken clouds.


Feels Like: 56 °F
Forecast: N/A
Wind: 18 mph from South

Location: Kenora

Current Time: Oct 22, 2014 at 6:06:17 PM

Latest Report: Oct 22, 2014 at 5:00 PM


Visibility: 15 mi

Pressure: 29.85 "Hg

Humidity: 59%

Dew point: 45 °F

Location of KenoraLocation

Historic Weather in Kenora — Graph

°F

Kenora temperature yesterday

Maximum temperature yesterday: 52 °F (at 2:00 PM)
Minimum temperature yesterday: 36 °F (at 12:00 AM)
Average temperature yesterday: 43 °F

Past Weeks' High & Low Weather Summary

 TemperatureHumidityPressure
High64 °F (Oct 16, 4:00 PM)100% (Oct 8, 9:00 AM)30.29 "Hg (Oct 8, 9:00 AM)
Low28 °F (Oct 18, 5:00 AM)34% (Oct 16, 4:00 PM)29.51 "Hg (Oct 16, 3:00 PM)
Average45 °F75%29.96 "Hg
* Reported Oct 7 4:00 PM — Oct 22 4:00 PM, Kenora, Weather by CustomWeather, © 2014

Note: Actual official high and low records may vary slightly from our data, if they occured in-between our weather recording intervals... More about our weather records

Advertising

Kenora weather history for previous 24 hours

 ConditionsComfort  
Time TempWeatherWind HumidityBarometerVisibility
4:00 PM
Oct 22
59 °FPartly sunny.17 mph59%29.84 "Hg15 mi
3:00 PM59 °FPartly sunny.16 mph55%29.87 "Hg15 mi
2:00 PM57 °FPartly sunny.17 mph59%29.90 "Hg15 mi
1:00 PM55 °FBroken clouds.16 mph59%29.91 "Hg15 mi
12:00 PM52 °FBroken clouds.18 mph62%29.92 "Hg15 mi
11:00 AM50 °FBroken clouds.16 mph67%29.94 "Hg15 mi
10:00 AM50 °FBroken clouds.13 mph67%29.95 "Hg15 mi
9:00 AM46 °FScattered clouds.15 mph76%29.96 "Hg15 mi
8:00 AM45 °FPassing clouds.14 mph76%29.98 "Hg15 mi
7:00 AM45 °FPassing clouds.13 mph76%29.98 "Hg15 mi
6:00 AM45 °FPassing clouds.15 mph76%29.98 "Hg15 mi
5:00 AM43 °FPassing clouds.12 mph81%29.99 "Hg15 mi
4:00 AM43 °FPassing clouds.12 mph81%30.01 "Hg15 mi
3:00 AM45 °FClear.15 mph76%30.01 "Hg15 mi
1:00 AM45 °FClear.18 mph71%30.01 "Hg15 mi
12:00 AM45 °FPassing clouds.17 mph71%30.01 "Hg15 mi
11:00 PM
Oct 21
45 °FPassing clouds.16 mph71%30.02 "Hg15 mi
10:00 PM45 °FPassing clouds.15 mph71%30.03 "Hg15 mi
9:00 PM43 °FClear.16 mph76%30.03 "Hg15 mi
8:00 PM43 °FClear.16 mph76%30.03 "Hg15 mi
7:00 PM45 °FPassing clouds.16 mph71%30.04 "Hg15 mi
6:00 PM46 °FPassing clouds.17 mph66%30.05 "Hg15 mi
Weather by CustomWeather, © 2014

See weather overviewHow to use our weather pages